| time (UTC) | temp F | wind direction | speed MPH | gust MPH | rain 1hr in | rain 24hr in | rain mn in | humidity % | barometer mb |
| 20260506175659 | 57 | 305 | 1.0 | 1.0 | 0.00 | 0.63 | 0.63 | 99 | 1006.6 |
| 20260506175156 | 57 | 138 | 5.0 | 6.0 | 0.07 | 0.63 | 0.63 | 99 | 1006.6 |
| 20260506174654 | 57 | 338 | 1.0 | 1.0 | 0.07 | 0.63 | 0.63 | 99 | 1006.6 |
| 20260506174151 | 57 | 200 | 3.0 | 3.0 | 0.00 | 0.62 | 0.62 | 99 | 1006.6 |
| 20260506173649 | 57 | 304 | 2.0 | 2.0 | 0.00 | 0.62 | 0.62 | 99 | 1006.6 |
| 20260506173145 | 57 | 162 | 2.0 | 2.0 | 0.05 | 0.62 | 0.62 | 99 | 1006.9 |
| 20260506172642 | 57 | 3 | 1.0 | 1.0 | 0.05 | 0.62 | 0.62 | 99 | 1006.9 |
| 20260506172138 | 57 | 312 | 1.0 | 2.0 | 0.07 | 0.61 | 0.61 | 99 | 1006.9 |
| 20260506171631 | 57 | 234 | 2.0 | 2.0 | 0.12 | 0.61 | 0.61 | 99 | 1006.8 |
| 20260506171128 | 57 | 186 | 2.0 | 3.0 | 0.17 | 0.60 | 0.60 | 99 | 1006.9 |
| 20260506170625 | 57 | 315 | 1.0 | 1.0 | 0.12 | 0.59 | 0.59 | 99 | 1006.6 |
| 20260506170117 | 57 | 303 | 1.0 | 1.0 | 0.07 | 0.57 | 0.57 | 99 | 1006.9 |
| 20260506165615 | 57 | 294 | 1.0 | 1.0 | 0.12 | 0.57 | 0.57 | 99 | 1007.1 |
| 20260506165106 | 57 | 251 | 2.0 | 2.0 | 0.12 | 0.56 | 0.56 | 99 | 1007.2 |
| 20260506164603 | 57 | 264 | 1.0 | 2.0 | 0.12 | 0.55 | 0.55 | 99 | 1006.9 |
| 20260506164100 | 57 | 309 | 2.0 | 2.0 | 0.05 | 0.54 | 0.54 | 99 | 1006.9 |
| 20260506163555 | 57 | 261 | 1.0 | 2.0 | 0.00 | 0.53 | 0.53 | 99 | 1006.9 |
| 20260506163051 | 57 | 337 | 1.0 | 2.0 | 0.07 | 0.53 | 0.53 | 99 | 1006.9 |
| 20260506162547 | 57 | 83 | 1.0 | 1.0 | 0.12 | 0.53 | 0.53 | 99 | 1006.9 |
| 20260506162039 | 56 | 254 | 3.0 | 3.0 | 0.05 | 0.52 | 0.52 | 99 | 1007.0 |
| 20260506161536 | 56 | 215 | 2.0 | 3.0 | 0.14 | 0.51 | 0.51 | 99 | 1007.0 |
| 20260506161028 | 56 | 257 | 1.0 | 2.0 | 0.12 | 0.50 | 0.50 | 99 | 1007.2 |
| 20260506160526 | 56 | 316 | 1.0 | 1.0 | 0.12 | 0.49 | 0.49 | 99 | 1007.1 |
| 20260506160022 | 56 | 196 | 2.0 | 2.0 | 0.12 | 0.48 | 0.48 | 99 | 1007.2 |
| 20260506155520 | 56 | 227 | 3.0 | 3.0 | 0.17 | 0.47 | 0.47 | 99 | 1007.2 |
| 20260506153652 | 56 | 221 | 2.0 | 3.0 | 0.12 | 0.41 | 0.41 | 99 | 1007.4 |
| 20260506153149 | 56 | 302 | 1.0 | 2.0 | 0.12 | 0.39 | 0.39 | 99 | 1007.5 |
| 20260506152646 | 57 | 214 | 4.0 | 5.0 | 0.14 | 0.38 | 0.38 | 99 | 1007.5 |
| 20260506152143 | 56 | 226 | 2.0 | 2.0 | 0.12 | 0.37 | 0.37 | 99 | 1007.1 |
| 20260506151642 | 56 | 355 | 0.0 | 1.0 | 0.12 | 0.36 | 0.36 | 99 | 1007.2 |
| 20260506151138 | 56 | 9 | 0.0 | 1.0 | 0.12 | 0.35 | 0.35 | 99 | 1007.1 |
| 20260506150635 | 56 | 4 | 0.0 | 0.0 | 0.12 | 0.34 | 0.34 | 99 | 1007.5 |
| 20260506150132 | 56 | 307 | 1.0 | 1.0 | 0.07 | 0.33 | 0.33 | 99 | 1007.0 |
| 20260506145629 | 56 | 111 | 1.0 | 1.0 | 0.00 | 0.32 | 0.32 | 99 | 1007.5 |
| 20260506145126 | 56 | 267 | 1.0 | 1.0 | 0.05 | 0.32 | 0.32 | 99 | 1007.2 |
| 20260506144624 | 56 | 310 | 1.0 | 1.0 | 0.12 | 0.32 | 0.32 | 99 | 1007.2 |
| 20260506144120 | 56 | 122 | 1.0 | 1.0 | 0.19 | 0.31 | 0.31 | 99 | 1007.2 |
| 20260506143618 | 56 | 15 | 0.0 | 0.0 | 0.12 | 0.29 | 0.29 | 99 | 1007.3 |
| 20260506143116 | 56 | 341 | 1.0 | 1.0 | 0.05 | 0.28 | 0.28 | 99 | 1007.4 |
| 20260506142614 | 56 | 332 | 0.0 | 1.0 | 0.17 | 0.28 | 0.28 | 99 | 1007.3 |
| 20260506142112 | 56 | 141 | 1.0 | 2.0 | 0.26 | 0.27 | 0.27 | 99 | 1007.7 |
| 20260506141609 | 56 | 288 | 1.0 | 1.0 | 0.19 | 0.25 | 0.25 | 99 | 1007.5 |
| 20260506141107 | 56 | 326 | 1.0 | 1.0 | 0.12 | 0.23 | 0.23 | 99 | 1007.9 |
| 20260506140604 | 56 | 272 | 2.0 | 2.0 | 0.19 | 0.22 | 0.22 | 99 | 1007.8 |
| 20260506135558 | 56 | 10 | 0.0 | 1.0 | 0.12 | 0.19 | 0.19 | 99 | 1007.8 |
| 20260506135054 | 56 | 345 | 0.0 | 0.0 | 0.12 | 0.18 | 0.18 | 99 | 1007.9 |
| 20260506134551 | 56 | 320 | 1.0 | 1.0 | 0.17 | 0.17 | 0.17 | 99 | 1008.1 |
| 20260506134047 | 56 | 35 | 1.0 | 1.0 | 0.12 | 0.15 | 0.15 | 99 | 1008.1 |
| 20260506133544 | 55 | 213 | 2.0 | 2.0 | 0.19 | 0.14 | 0.14 | 99 | 1008.1 |
| 20260506133041 | 55 | 207 | 2.0 | 2.0 | 0.17 | 0.12 | 0.12 | 99 | 1008.4 |
| 20260506132539 | 55 | 321 | 1.0 | 1.0 | 0.19 | 0.11 | 0.11 | 99 | 1008.4 |
| 20260506132036 | 55 | 316 | 1.0 | 1.0 | 0.19 | 0.09 | 0.09 | 99 | 1008.6 |
| 20260506131533 | 55 | 343 | 0.0 | 1.0 | 0.17 | 0.08 | 0.08 | 99 | 1008.7 |
| 20260506131029 | 55 | 0 | 0.0 | 0.0 | 0.12 | 0.06 | 0.06 | 99 | 1008.6 |
| 20260506130526 | 55 | 352 | 0.0 | 0.0 | 0.12 | 0.05 | 0.05 | 99 | 1008.2 |
| 20260506130024 | 55 | 352 | 0.0 | 0.0 | 0.05 | 0.04 | 0.04 | 99 | 1008.4 |
| 20260506125522 | 55 | 349 | 0.0 | 0.0 | 0.00 | 0.03 | 0.03 | 99 | 1008.1 |
| 20260506125019 | 55 | 356 | 0.0 | 0.0 | 0.07 | 0.03 | 0.03 | 99 | 1007.9 |
| 20260506124517 | 55 | 2 | 0.0 | 0.0 | 0.07 | 0.03 | 0.03 | 99 | 1008.2 |
| 20260506124014 | 54 | 351 | 0.0 | 0.0 | 0.00 | 0.02 | 0.02 | 99 | 1007.7 |
| 20260506123512 | 54 | 352 | 0.0 | 0.0 | 0.00 | 0.02 | 0.02 | 99 | 1007.9 |
| 20260506123010 | 54 | 7 | 0.0 | 0.0 | 0.05 | 0.02 | 0.02 | 99 | 1007.9 |
| 20260506122506 | 54 | 354 | 0.0 | 0.0 | 0.05 | 0.02 | 0.02 | 99 | 1007.8 |
| 20260506122005 | 54 | 355 | 0.0 | 0.0 | 0.00 | 0.01 | 0.01 | 99 | 1007.9 |
| 20260506121502 | 54 | 2 | 0.0 | 0.0 | 0.00 | 0.01 | 0.01 | 99 | 1008.0 |
| 20260506120958 | 54 | 5 | 0.0 | 0.0 | 0.00 | 0.01 | 0.01 | 99 | 1008.2 |
| 20260506120456 | 54 | 349 | 0.0 | 0.0 | 0.00 | 0.01 | 0.01 | 99 | 1008.0 |
| 20260506115953 | 54 | 349 | 0.0 | 0.0 | 0.00 | 0.01 | 0.01 | 99 | 1008.1 |
| 20260506115451 | 54 | 357 | 0.0 | 0.0 | 0.00 | 0.01 | 0.01 | 99 | 1008.4 |
| 20260506114949 | 54 | 355 | 0.0 | 0.0 | 0.00 | 0.01 | 0.01 | 99 | 1007.9 |
| 20260506114446 | 54 | 0 | 0.0 | 0.0 | 0.00 | 0.01 | 0.01 | 99 | 1008.1 |
| 20260506113945 | 54 | 345 | 0.0 | 0.0 | 0.07 | 0.01 | 0.01 | 99 | 1008.4 |
| 20260506113442 | 53 | 5 | 0.0 | 0.0 | 0.07 | 0.01 | 0.01 | 99 | 1008.0 |
| 20260506112938 | 53 | 6 | 0.0 | 0.0 | 0.00 | 0.00 | 0.00 | 99 | 1008.0 |
| 20260506112436 | 53 | 4 | 0.0 | 0.0 | 0.00 | 0.00 | 0.00 | 99 | 1008.0 |
| 20260506111933 | 53 | 349 | 0.0 | 0.0 | 0.00 | 0.00 | 0.00 | 99 | 1008.1 |
| 20260506111431 | 53 | 349 | 0.0 | 0.0 | 0.00 | 0.00 | 0.00 | 99 | 1008.0 |
| 20260506110928 | 53 | 350 | 0.0 | 0.0 | 0.00 | 0.00 | 0.00 | 99 | 1008.0 |
| 20260506110426 | 53 | 348 | 0.0 | 0.0 | 0.00 | 0.00 | 0.00 | 99 | 1008.4 |
| 20260506105922 | 53 | 3 | 0.0 | 0.0 | 0.00 | 0.00 | 0.00 | 99 | 1008.1 |
| 20260506105418 | 53 | 356 | 0.0 | 0.0 | 0.00 | 0.00 | 0.00 | 99 | 1008.0 |
| 20260506104916 | 53 | 357 | 0.0 | 0.0 | 0.00 | 0.00 | 0.00 | 99 | 1007.5 |
| 20260506104414 | 53 | 3 | 1.0 | 1.0 | 0.00 | 0.00 | 0.00 | 99 | 1007.9 |
| 20260506103912 | 53 | 6 | 1.0 | 2.0 | 0.00 | 0.00 | 0.00 | 99 | 1007.8 |
| 20260506103409 | 53 | 8 | 1.0 | 2.0 | 0.00 | 0.00 | 0.00 | 99 | 1007.9 |
| 20260506102906 | 54 | 9 | 1.0 | 1.0 | 0.00 | 0.00 | 0.00 | 99 | 1007.8 |
| 20260506102404 | 54 | 8 | 0.0 | 0.0 | 0.00 | 0.00 | 0.00 | 98 | 1007.9 |
| 20260506101901 | 54 | 10 | 1.0 | 1.0 | 0.00 | 0.00 | 0.00 | 97 | 1007.4 |
| 20260506101356 | 54 | 9 | 0.0 | 1.0 | 0.00 | 0.00 | 0.00 | 95 | 1007.7 |
| 20260506100854 | 54 | 10 | 1.0 | 1.0 | 0.00 | 0.00 | 0.00 | 92 | 1007.9 |
| 20260506100353 | 54 | 7 | 0.0 | 1.0 | 0.00 | 0.00 | 0.00 | 92 | 1007.9 |
| 20260506095850 | 55 | 6 | 1.0 | 1.0 | 0.00 | 0.00 | 0.00 | 89 | 1008.0 |
| 20260506095348 | 55 | 6 | 0.0 | 0.0 | 0.00 | 0.00 | 0.00 | 87 | 1007.8 |
| 20260506094844 | 54 | 3 | 1.0 | 1.0 | 0.00 | 0.00 | 0.00 | 88 | 1007.8 |
| 20260506094343 | 54 | 1 | 0.0 | 0.0 | 0.00 | 0.00 | 0.00 | 89 | 1007.4 |
| 20260506093841 | 54 | 3 | 1.0 | 1.0 | 0.00 | 0.00 | 0.00 | 88 | 1007.6 |
| 20260506093338 | 54 | 2 | 1.0 | 1.0 | 0.00 | 0.00 | 0.00 | 90 | 1007.5 |
| 20260506092835 | 54 | 6 | 0.0 | 1.0 | 0.00 | 0.00 | 0.00 | 92 | 1007.3 |
| 20260506092333 | 54 | 2 | 0.0 | 0.0 | 0.00 | 0.00 | 0.00 | 90 | 1007.5 |
| 20260506091830 | 54 | 357 | 0.0 | 0.0 | 0.00 | 0.00 | 0.00 | 92 | 1007.8 |
| 20260506091328 | 54 | 6 | 0.0 | 0.0 | 0.00 | 0.00 | 0.00 | 92 | 1007.6 |
| 20260506090825 | 54 | 7 | 0.0 | 0.0 | 0.00 | 0.00 | 0.00 | 91 | 1007.6 |
| 20260506090322 | 53 | 6 | 0.0 | 1.0 | 0.00 | 0.00 | 0.00 | 93 | 1007.6 |
| 20260506085819 | 53 | 6 | 1.0 | 1.0 | 0.00 | 0.00 | 0.00 | 95 | 1007.8 |
| 20260506085315 | 53 | 356 | 1.0 | 1.0 | 0.00 | 0.00 | 0.00 | 96 | 1008.0 |
| 20260506084812 | 53 | 355 | 0.0 | 0.0 | 0.00 | 0.00 | 0.00 | 96 | 1008.0 |
| 20260506084308 | 54 | 356 | 0.0 | 0.0 | 0.00 | 0.00 | 0.00 | 96 | 1008.1 |
| 20260506083805 | 53 | 354 | 0.0 | 0.0 | 0.00 | 0.00 | 0.00 | 96 | 1008.0 |
| 20260506083303 | 53 | 354 | 0.0 | 0.0 | 0.00 | 0.00 | 0.00 | 96 | 1007.7 |
| 20260506082800 | 53 | 354 | 0.0 | 0.0 | 0.00 | 0.00 | 0.00 | 96 | 1007.8 |
| 20260506082256 | 53 | 6 | 0.0 | 0.0 | 0.00 | 0.00 | 0.00 | 96 | 1008.0 |
| 20260506081753 | 53 | 0 | 0.0 | 0.0 | 0.00 | 0.00 | 0.00 | 96 | 1007.6 |
| 20260506081251 | 53 | 2 | 1.0 | 1.0 | 0.00 | 0.00 | 0.00 | 97 | 1007.7 |
| 20260506080749 | 53 | 11 | 1.0 | 1.0 | 0.00 | 0.00 | 0.00 | 98 | 1007.9 |
| 20260506080244 | 53 | 349 | 0.0 | 0.0 | 0.00 | 0.00 | 0.00 | 98 | 1008.0 |
| 20260506073229 | 52 | 351 | 0.0 | 0.0 | 0.00 | 0.00 | 0.00 | 98 | 1008.2 |
| 20260506072725 | 52 | 351 | 0.0 | 1.0 | 0.00 | 0.00 | 0.00 | 98 | 1008.0 |
| 20260506072223 | 52 | 349 | 0.0 | 0.0 | 0.00 | 0.00 | 0.00 | 98 | 1008.4 |
| 20260506071721 | 52 | 349 | 0.0 | 0.0 | 0.00 | 0.00 | 0.00 | 98 | 1008.1 |
| 20260506071218 | 52 | 349 | 0.0 | 0.0 | 0.00 | 0.00 | 0.00 | 98 | 1008.2 |
| 20260506070715 | 51 | 349 | 0.0 | 0.0 | 0.00 | 0.00 | 0.00 | 98 | 1008.2 |
| 20260506070212 | 51 | 347 | 0.0 | 1.0 | 0.00 | 0.00 | 0.00 | 98 | 1008.5 |
| 20260506062149 | 51 | 358 | 0.0 | 0.0 | 0.00 | 0.00 | 0.00 | 97 | 1008.7 |
| 20260506061645 | 51 | 10 | 1.0 | 1.0 | 0.00 | 0.00 | 0.00 | 97 | 1008.8 |
| 20260506061143 | 52 | 351 | 0.0 | 1.0 | 0.00 | 0.00 | 0.00 | 95 | 1008.7 |
| 20260506060641 | 52 | 352 | 1.0 | 1.0 | 0.00 | 0.00 | 0.00 | 95 | 1008.8 |
| 20260506060138 | 52 | 351 | 0.0 | 0.0 | 0.00 | 0.00 | 0.00 | 95 | 1008.9 |
| 20260506051110 | 52 | 6 | 1.0 | 1.0 | 0.00 | 0.00 | 0.00 | 93 | 1009.2 |
| 20260506050608 | 52 | 5 | 1.0 | 1.0 | 0.00 | 0.00 | 0.00 | 93 | 1009.4 |
| 20260506050105 | 53 | 359 | 0.0 | 0.0 | 0.00 | 0.00 | 0.00 | 92 | 1009.1 |
| 20260506045058 | 53 | 354 | 0.0 | 0.0 | 0.00 | 0.00 | 0.00 | 91 | 1009.0 |
| 20260506044556 | 53 | 354 | 0.0 | 0.0 | 0.00 | 0.00 | 0.00 | 90 | 1009.0 |
| 20260506044052 | 54 | 5 | 0.0 | 0.0 | 0.00 | 0.00 | 0.00 | 89 | 1008.9 |
| 20260506043549 | 54 | 6 | 1.0 | 1.0 | 0.00 | 0.00 | 0.00 | 89 | 1009.2 |
| 20260506043048 | 53 | 5 | 0.0 | 1.0 | 0.00 | 0.00 | 0.00 | 90 | 1009.2 |
| 20260506042547 | 53 | 350 | 1.0 | 1.0 | 0.00 | 0.00 | 0.00 | 91 | 1009.4 |
| 20260506042044 | 53 | 349 | 1.0 | 1.0 | 0.00 | 0.00 | 0.00 | 90 | 1009.3 |
| 20260506041543 | 54 | 2 | 0.0 | 0.0 | 0.00 | 0.00 | 0.00 | 90 | 1009.2 |
| 20260506041039 | 54 | 2 | 0.0 | 0.0 | 0.00 | 0.00 | 0.00 | 89 | 1009.3 |
| 20260506040537 | 54 | 356 | 1.0 | 1.0 | 0.00 | 0.00 | 0.00 | 90 | 1009.1 |
| 20260506040032 | 54 | 2 | 1.0 | 1.0 | 0.00 | 0.00 | 0.00 | 88 | 1009.4 |
| 20260506035530 | 53 | 3 | 0.0 | 1.0 | 0.00 | 0.00 | 0.00 | 90 | 1009.2 |
| 20260506035026 | 54 | 355 | 0.0 | 1.0 | 0.00 | 0.00 | 0.00 | 89 | 1009.2 |
| 20260506034524 | 55 | 2 | 0.0 | 0.0 | 0.00 | 0.00 | 0.00 | 87 | 1009.3 |
| 20260506034021 | 55 | 359 | 0.0 | 1.0 | 0.00 | 0.00 | 0.00 | 88 | 1009.2 |
| 20260506033518 | 55 | 359 | 0.0 | 1.0 | 0.00 | 0.00 | 0.00 | 87 | 1009.2 |
| 20260506033015 | 55 | 359 | 0.0 | 1.0 | 0.00 | 0.00 | 0.00 | 88 | 1009.3 |
| 20260506032513 | 55 | 357 | 1.0 | 1.0 | 0.00 | 0.00 | 0.00 | 87 | 1009.3 |
| 20260506032009 | 56 | 359 | 1.0 | 1.0 | 0.00 | 0.00 | 0.00 | 85 | 1009.2 |
| 20260506031507 | 56 | 358 | 1.0 | 1.0 | 0.00 | 0.00 | 0.00 | 86 | 1009.2 |
| 20260506031003 | 56 | 356 | 1.0 | 1.0 | 0.00 | 0.00 | 0.00 | 86 | 1009.1 |
| 20260506030502 | 56 | 355 | 0.0 | 1.0 | 0.00 | 0.00 | 0.00 | 85 | 1009.1 |
| 20260506025958 | 57 | 3 | 0.0 | 0.0 | 0.00 | 0.00 | 0.00 | 85 | 1009.0 |
| 20260506025455 | 57 | 3 | 0.0 | 0.0 | 0.00 | 0.00 | 0.00 | 86 | 1009.1 |
| 20260506024952 | 58 | 3 | 0.0 | 1.0 | 0.00 | 0.00 | 0.00 | 86 | 1009.0 |
| 20260506024448 | 58 | 3 | 0.0 | 1.0 | 0.00 | 0.00 | 0.00 | 84 | 1009.1 |
| 20260506023944 | 58 | 2 | 1.0 | 1.0 | 0.00 | 0.00 | 0.00 | 85 | 1009.0 |
| 20260506023441 | 59 | 2 | 1.0 | 1.0 | 0.00 | 0.00 | 0.00 | 85 | 1009.1 |
| 20260506022938 | 59 | 3 | 1.0 | 1.0 | 0.00 | 0.00 | 0.00 | 82 | 1009.1 |
| 20260506022436 | 59 | 3 | 0.0 | 0.0 | 0.00 | 0.00 | 0.00 | 81 | 1009.4 |
| 20260506021934 | 60 | 3 | 1.0 | 1.0 | 0.00 | 0.00 | 0.00 | 82 | 1009.3 |
| 20260506021430 | 60 | 3 | 0.0 | 0.0 | 0.00 | 0.00 | 0.00 | 78 | 1009.4 |
| 20260506020927 | 60 | 1 | 0.0 | 0.0 | 0.00 | 0.00 | 0.00 | 80 | 1009.2 |
| 20260506020425 | 60 | 351 | 0.0 | 0.0 | 0.00 | 0.00 | 0.00 | 80 | 1009.1 |
| 20260506015922 | 60 | 352 | 1.0 | 1.0 | 0.00 | 0.00 | 0.00 | 79 | 1009.0 |
| 20260506015420 | 61 | 354 | 1.0 | 1.0 | 0.00 | 0.00 | 0.00 | 79 | 1008.9 |
| 20260506014916 | 61 | 1 | 0.0 | 0.0 | 0.00 | 0.00 | 0.00 | 77 | 1009.0 |
| 20260506014414 | 61 | 358 | 1.0 | 1.0 | 0.00 | 0.00 | 0.00 | 77 | 1008.9 |
| 20260506013910 | 60 | 358 | 0.0 | 0.0 | 0.00 | 0.00 | 0.00 | 78 | 1009.1 |
| 20260506013408 | 61 | 357 | 0.0 | 0.0 | 0.00 | 0.00 | 0.00 | 79 | 1009.0 |
| 20260506012904 | 61 | 2 | 0.0 | 0.0 | 0.00 | 0.00 | 0.00 | 77 | 1008.9 |
| 20260506012401 | 61 | 1 | 1.0 | 1.0 | 0.00 | 0.00 | 0.00 | 80 | 1008.6 |
| 20260506011857 | 62 | 1 | 1.0 | 1.0 | 0.00 | 0.00 | 0.00 | 76 | 1008.6 |
| 20260506011354 | 62 | 2 | 0.0 | 1.0 | 0.00 | 0.00 | 0.00 | 76 | 1008.7 |
| 20260506010851 | 62 | 1 | 1.0 | 1.0 | 0.00 | 0.00 | 0.00 | 76 | 1008.7 |
| 20260506010350 | 63 | 1 | 0.0 | 1.0 | 0.00 | 0.00 | 0.00 | 76 | 1008.6 |
| 20260506002850 | 66 | 357 | 0.0 | 0.0 | 0.00 | 0.00 | 0.00 | 65 | 1008.6 |
| 20260506002346 | 66 | 357 | 0.0 | 0.0 | 0.00 | 0.00 | 0.00 | 65 | 1008.6 |
| 20260506001842 | 66 | 357 | 0.0 | 0.0 | 0.00 | 0.00 | 0.00 | 65 | 1008.6 |
| 20260506001339 | 67 | 352 | 1.0 | 1.0 | 0.00 | 0.00 | 0.00 | 66 | 1008.5 |
| 20260506000836 | 67 | 355 | 0.0 | 0.0 | 0.00 | 0.00 | 0.00 | 61 | 1008.2 |
| 20260506000334 | 68 | 351 | 0.0 | 0.0 | 0.00 | 0.00 | 0.00 | 61 | 1008.5 |
| 20260505235830 | 69 | 0 | 0.0 | 0.0 | 0.00 | 0.00 | 0.00 | 59 | 1008.1 |
| 20260505235328 | 70 | 7 | 0.0 | 0.0 | 0.00 | 0.00 | 0.00 | 58 | 1008.4 |
| 20260505234824 | 70 | 318 | 1.0 | 1.0 | 0.00 | 0.00 | 0.00 | 53 | 1008.2 |
| 20260505234323 | 70 | 270 | 2.0 | 2.0 | 0.00 | 0.00 | 0.00 | 52 | 1008.1 |
| 20260505233819 | 70 | 255 | 4.0 | 5.0 | 0.00 | 0.00 | 0.00 | 51 | 1008.1 |
| 20260505233317 | 71 | 249 | 3.0 | 3.0 | 0.00 | 0.00 | 0.00 | 51 | 1007.9 |
| 20260505232814 | 70 | 266 | 2.0 | 2.0 | 0.00 | 0.00 | 0.00 | 51 | 1008.0 |
| 20260505232312 | 70 | 266 | 1.0 | 2.0 | 0.00 | 0.00 | 0.00 | 52 | 1007.7 |
| 20260505231808 | 71 | 321 | 2.0 | 2.0 | 0.00 | 0.00 | 0.00 | 51 | 1008.0 |
| 20260505231307 | 71 | 249 | 1.0 | 1.0 | 0.00 | 0.00 | 0.00 | 51 | 1007.9 |
| 20260505230804 | 71 | 265 | 1.0 | 2.0 | 0.00 | 0.00 | 0.00 | 52 | 1007.9 |
| 20260505230301 | 71 | 166 | 4.0 | 6.0 | 0.00 | 0.00 | 0.00 | 51 | 1007.7 |
| 20260505225757 | 71 | 247 | 2.0 | 2.0 | 0.00 | 0.00 | 0.00 | 51 | 1007.8 |
| 20260505225255 | 71 | 189 | 3.0 | 3.0 | 0.00 | 0.00 | 0.00 | 50 | 1007.8 |
| 20260505224749 | 71 | 222 | 3.0 | 3.0 | 0.00 | 0.00 | 0.00 | 51 | 1007.5 |
| 20260505224248 | 72 | 194 | 1.0 | 2.0 | 0.00 | 0.00 | 0.00 | 51 | 1007.4 |
| 20260505223745 | 72 | 191 | 3.0 | 5.0 | 0.00 | 0.00 | 0.00 | 48 | 1007.3 |
| 20260505223241 | 72 | 219 | 3.0 | 3.0 | 0.00 | 0.00 | 0.00 | 48 | 1007.5 |
| 20260505222737 | 72 | 220 | 3.0 | 5.0 | 0.00 | 0.00 | 0.00 | 49 | 1007.7 |
| 20260505222234 | 72 | 224 | 3.0 | 3.0 | 0.00 | 0.00 | 0.00 | 50 | 1007.3 |
| 20260505221731 | 73 | 276 | 3.0 | 5.0 | 0.00 | 0.00 | 0.00 | 48 | 1007.2 |
| 20260505221227 | 73 | 212 | 3.0 | 3.0 | 0.00 | 0.00 | 0.00 | 47 | 1007.4 |
| 20260505220724 | 73 | 182 | 4.0 | 5.0 | 0.00 | 0.00 | 0.00 | 47 | 1007.2 |
| 20260505220222 | 74 | 227 | 4.0 | 5.0 | 0.00 | 0.00 | 0.00 | 46 | 1007.2 |
| 20260505215720 | 74 | 212 | 3.0 | 3.0 | 0.00 | 0.00 | 0.00 | 46 | 1007.1 |
| 20260505215217 | 75 | 224 | 1.0 | 1.0 | 0.00 | 0.00 | 0.00 | 47 | 1007.2 |
| 20260505214715 | 74 | 201 | 3.0 | 3.0 | 0.00 | 0.00 | 0.00 | 48 | 1007.2 |
| 20260505214212 | 74 | 339 | 3.0 | 5.0 | 0.00 | 0.00 | 0.00 | 45 | 1007.1 |
| 20260505213710 | 74 | 6 | 3.0 | 5.0 | 0.00 | 0.00 | 0.00 | 46 | 1007.2 |
| 20260505213207 | 74 | 225 | 6.0 | 7.0 | 0.00 | 0.00 | 0.00 | 45 | 1007.3 |
| 20260505212703 | 75 | 169 | 7.0 | 9.0 | 0.00 | 0.00 | 0.00 | 44 | 1007.1 |
| 20260505212200 | 76 | 224 | 8.0 | 9.0 | 0.00 | 0.00 | 0.00 | 43 | 1007.2 |
| 20260505211657 | 75 | 169 | 7.0 | 11.0 | 0.00 | 0.00 | 0.00 | 42 | 1006.9 |
| 20260505211154 | 75 | 205 | 7.0 | 9.0 | 0.00 | 0.00 | 0.00 | 42 | 1006.8 |
| 20260505210650 | 76 | 218 | 4.0 | 6.0 | 0.00 | 0.00 | 0.00 | 42 | 1006.8 |
| 20260505210147 | 77 | 188 | 7.0 | 10.0 | 0.00 | 0.00 | 0.00 | 42 | 1006.7 |
| 20260505205645 | 76 | 183 | 6.0 | 10.0 | 0.00 | 0.00 | 0.00 | 42 | 1006.8 |
| 20260505205143 | 76 | 247 | 5.0 | 6.0 | 0.00 | 0.00 | 0.00 | 42 | 1006.6 |
| 20260505204639 | 74 | 242 | 5.0 | 7.0 | 0.00 | 0.00 | 0.00 | 43 | 1006.7 |
| 20260505204137 | 74 | 206 | 6.0 | 7.0 | 0.00 | 0.00 | 0.00 | 43 | 1006.3 |
| 20260505203634 | 74 | 195 | 9.0 | 11.0 | 0.00 | 0.00 | 0.00 | 42 | 1006.9 |
| 20260505203131 | 74 | 193 | 7.0 | 9.0 | 0.00 | 0.00 | 0.00 | 41 | 1006.6 |
| 20260505202626 | 74 | 235 | 8.0 | 13.0 | 0.00 | 0.00 | 0.00 | 42 | 1006.6 |
| 20260505202123 | 74 | 197 | 5.0 | 6.0 | 0.00 | 0.00 | 0.00 | 41 | 1006.5 |
| 20260505201619 | 74 | 181 | 11.0 | 15.0 | 0.00 | 0.00 | 0.00 | 41 | 1006.4 |
| 20260505201117 | 74 | 163 | 4.0 | 5.0 | 0.00 | 0.00 | 0.00 | 41 | 1006.7 |
| 20260505200615 | 75 | 163 | 7.0 | 8.0 | 0.00 | 0.00 | 0.00 | 42 | 1006.3 |
| 20260505200112 | 75 | 211 | 10.0 | 14.0 | 0.00 | 0.00 | 0.00 | 40 | 1006.2 |
| 20260505195608 | 76 | 126 | 6.0 | 7.0 | 0.00 | 0.00 | 0.00 | 40 | 1006.6 |
| 20260505195106 | 78 | 200 | 5.0 | 7.0 | 0.00 | 0.00 | 0.00 | 38 | 1006.4 |
| 20260505194603 | 77 | 206 | 6.0 | 9.0 | 0.00 | 0.00 | 0.00 | 38 | 1006.5 |
| 20260505194058 | 77 | 240 | 10.0 | 11.0 | 0.00 | 0.00 | 0.00 | 38 | 1006.6 |
| 20260505193555 | 78 | 181 | 11.0 | 13.0 | 0.00 | 0.00 | 0.00 | 37 | 1006.7 |
| 20260505193052 | 77 | 166 | 4.0 | 6.0 | 0.00 | 0.00 | 0.00 | 39 | 1006.4 |
| 20260505192551 | 78 | 220 | 6.0 | 6.0 | 0.00 | 0.00 | 0.00 | 38 | 1006.8 |
| 20260505192048 | 77 | 232 | 2.0 | 3.0 | 0.00 | 0.00 | 0.00 | 40 | 1006.8 |
| 20260505191546 | 77 | 184 | 4.0 | 5.0 | 0.00 | 0.00 | 0.00 | 40 | 1006.8 |
| 20260505191044 | 78 | 173 | 6.0 | 10.0 | 0.00 | 0.00 | 0.00 | 38 | 1007.0 |
| 20260505190538 | 77 | 254 | 5.0 | 8.0 | 0.00 | 0.00 | 0.00 | 39 | 1006.9 |
| 20260505190034 | 76 | 251 | 11.0 | 14.0 | 0.00 | 0.00 | 0.00 | 40 | 1007.3 |
| 20260505185531 | 77 | 214 | 5.0 | 6.0 | 0.00 | 0.00 | 0.00 | 41 | 1007.2 |
| 20260505185028 | 77 | 206 | 7.0 | 9.0 | 0.00 | 0.00 | 0.00 | 40 | 1007.3 |
| 20260505184525 | 77 | 254 | 6.0 | 8.0 | 0.00 | 0.00 | 0.00 | 40 | 1007.1 |
| 20260505184021 | 76 | 154 | 8.0 | 9.0 | 0.00 | 0.00 | 0.00 | 41 | 1007.3 |
| 20260505183518 | 76 | 149 | 4.0 | 6.0 | 0.00 | 0.00 | 0.00 | 40 | 1007.4 |
| 20260505183016 | 76 | 123 | 5.0 | 6.0 | 0.00 | 0.00 | 0.00 | 40 | 1007.5 |
| 20260505182512 | 75 | 192 | 7.0 | 9.0 | 0.00 | 0.00 | 0.00 | 42 | 1007.6 |
| 20260505182009 | 75 | 236 | 4.0 | 5.0 | 0.00 | 0.00 | 0.00 | 44 | 1007.7 |
| 20260505181505 | 75 | 34 | 3.0 | 5.0 | 0.00 | 0.00 | 0.00 | 45 | 1007.8 |
| 20260505181003 | 75 | 188 | 7.0 | 9.0 | 0.00 | 0.00 | 0.00 | 44 | 1007.9 |
| 20260505180458 | 76 | 256 | 15.0 | 18.0 | 0.00 | 0.00 | 0.00 | 43 | 1008.0 |
| 20260505175955 | 78 | 199 | 8.0 | 10.0 | 0.00 | 0.00 | 0.00 | 41 | 1008.2 |